TimeMST,TemperatureF,Dew PointF,Humidity,Sea Level PressureIn,VisibilityMPH,Wind Direction,Wind SpeedMPH,Gust SpeedMPH,PrecipitationIn,Events,Conditions,WindDirDegrees,DateUTC
12:52 AM,37.0,10.0,33,30.31,10.0,NNE,6.9,-,N/A,,Clear,20,2012-11-14 07:52:00
1:52 AM,35.1,10.9,37,30.31,10.0,Calm,Calm,-,N/A,,Clear,0,2012-11-14 08:52:00
2:52 AM,37.0,12.0,36,30.28,10.0,NNE,6.9,-,N/A,,Clear,30,2012-11-14 09:52:00
3:52 AM,34.0,12.0,40,30.28,10.0,NW,4.6,-,N/A,,Clear,320,2012-11-14 10:52:00
4:52 AM,32.0,10.0,40,30.30,10.0,North,11.5,-,N/A,,Clear,360,2012-11-14 11:52:00
5:52 AM,30.9,9.0,40,30.34,10.0,North,8.1,-,N/A,,Clear,360,2012-11-14 12:52:00
6:52 AM,30.0,9.0,41,30.37,10.0,North,8.1,-,N/A,,Clear,350,2012-11-14 13:52:00
7:52 AM,32.0,10.0,40,30.38,10.0,NE,3.5,-,N/A,,Clear,40,2012-11-14 14:52:00
8:52 AM,37.0,10.9,34,30.36,10.0,NW,3.5,-,N/A,,Clear,320,2012-11-14 15:52:00
9:52 AM,41.0,10.9,29,30.37,10.0,WNW,3.5,-,N/A,,Clear,300,2012-11-14 16:52:00
10:52 AM,44.1,12.0,27,30.35,10.0,Calm,Calm,-,N/A,,Clear,0,2012-11-14 17:52:00
11:52 AM,48.9,12.0,23,30.28,10.0,Calm,Calm,-,N/A,,Partly Cloudy,0,2012-11-14 18:52:00
12:52 PM,52.0,12.0,20,30.24,10.0,Calm,Calm,-,N/A,,Partly Cloudy,0,2012-11-14 19:52:00
1:52 PM,55.0,10.9,17,30.21,10.0,Calm,Calm,-,N/A,,Scattered Clouds,0,2012-11-14 20:52:00
2:52 PM,57.9,10.9,16,30.17,10.0,Calm,Calm,-,N/A,,Scattered Clouds,0,2012-11-14 21:52:00
3:52 PM,57.0,9.0,15,30.17,10.0,Calm,Calm,-,N/A,,Scattered Clouds,0,2012-11-14 22:52:00
4:52 PM,55.0,10.0,17,30.18,10.0,SW,4.6,-,N/A,,Scattered Clouds,230,2012-11-14 23:52:00
5:52 PM,53.1,8.1,16,30.19,10.0,South,5.8,-,N/A,,Scattered Clouds,190,2012-11-15 00:52:00
6:52 PM,46.0,6.1,20,30.23,10.0,ESE,4.6,-,N/A,,Scattered Clouds,110,2012-11-15 01:52:00
7:52 PM,43.0,7.0,23,30.24,10.0,ESE,5.8,-,N/A,,Scattered Clouds,120,2012-11-15 02:52:00
8:52 PM,39.9,7.0,26,30.23,10.0,ESE,5.8,-,N/A,,Partly Cloudy,110,2012-11-15 03:52:00
9:52 PM,39.0,8.1,28,30.23,10.0,East,3.5,-,N/A,,Partly Cloudy,80,2012-11-15 04:52:00
10:52 PM,42.1,10.0,27,30.21,10.0,North,3.5,-,N/A,,Partly Cloudy,350,2012-11-15 05:52:00
11:52 PM,41.0,10.9,29,30.19,10.0,North,5.8,-,N/A,,Partly Cloudy,360,2012-11-15 06:52:00